Location: Powder Track
(41.8531°N, 72.3584°W)
Time: 23:18:46
(UTC+00:00)

X-37B - Pass Details

Date: 01 July 2021
Orbit: 383 x 392 km, 45.0° (Epoch: 01 July)

Event Time Altitude Azimuth Distance (km) Brightness Sun altitude
Rises 02:18:39 0° 288° (WNW) 2,259 5.4 -15.9°
Reaches altitude 10° 02:20:44 10° 292° (WNW) 1,403 4.3 -16.1°
Maximum altitude 02:23:52 60° 13° (NNE) 442 1.0 -16.4°
Enters shadow 02:25:13 29° 83° (E) 725 1.7 -16.6°
